Weather History for KCKB - February, 2014

Change the Weather History Date:

Friday, February 14, 2014

  Actual Average Record
Temperature  
Mean Temperature 34 °F -  
Max Temperature 42 °F 42 °F 68 °F (1938)
Min Temperature 26 °F 21 °F -9 °F (1934)
Degree Days  
Heating Degree Days 31    
Moisture  
Dew Point 24 °F    
Average Humidity 70    
Maximum Humidity 96    
Minimum Humidity 43    
Precipitation  
Precipitation 0.05 in - - ()
Sea Level Pressure  
Sea Level Pressure 29.66 in    
Wind  
Wind Speed 9 mph (SW)    
Max Wind Speed 20 mph    
Max Gust Speed 37 mph    
Visibility 8 miles    
Events Fog , Snow    
Averages and records for this station are not official NWS values.
T = Trace of Precipitation, MM = Missing Value Source: NWS Daily Summary

Daily Weather History Graph

Daily Weather History Graph

Search for Another Location

Airport or City:

Trip Planner

Search our weather history database for the weather conditions in past years. The results will help you decide how hot, cold, wet, or windy it might be!

Date:

Astronomy

Feb. 14, 2014 Rise Set
Actual Time 7:13 AM EST 5:56 PM EST
Civil Twilight 6:46 AM EST 6:24 PM EST
Nautical Twilight 6:15 AM EST 6:55 PM EST
Astronomical Twilight 5:43 AM EST 7:26 PM EST
Moon 5:58 PM EST (2/14) 6:40 AM EST (2/14)
Length of Visible Light 11h 37m
Length of Day
10h 42m
Full, 100% of the Moon is Illuminated
Feb 14
Full
Feb 14
Full
Feb 22
Last Quarter
Mar 1
New
Mar 8
First Quarter

Hourly Weather History & Observations

Time (EST) Temp. Windchill Dew Point Humidity Pressure Visibility Wind Dir Wind Speed Gust Speed Precip Events Conditions
12:53 AM 28.0 °F 20.8 °F 21.9 °F 78% 29.61 in 9.0 mi SW 6.9 mph - N/A   Mostly Cloudy
1:53 AM 26.1 °F 18.4 °F 19.9 °F 78% 29.60 in 10.0 mi SSW 6.9 mph - N/A   Partly Cloudy
2:53 AM 27.0 °F 18.0 °F 18.0 °F 69% 29.59 in 10.0 mi SSW 9.2 mph - N/A   Overcast
3:53 AM 30.0 °F 20.5 °F 19.9 °F 66% 29.58 in 10.0 mi SSW 11.5 mph - N/A   Overcast
4:53 AM 30.9 °F 21.2 °F 19.9 °F 64% 29.59 in 10.0 mi SW 12.7 mph - N/A   Overcast
5:53 AM 32.0 °F 22.5 °F 19.9 °F 61% 29.61 in 10.0 mi SW 12.7 mph 19.6 mph N/A   Overcast
6:53 AM 32.0 °F 22.1 °F 21.0 °F 64% 29.60 in 10.0 mi SW 13.8 mph - N/A   Overcast
7:53 AM 33.1 °F 21.9 °F 21.9 °F 64% 29.62 in 8.0 mi WSW 18.4 mph 36.8 mph N/A   Overcast
8:53 AM 33.1 °F 21.5 °F 21.9 °F 64% 29.65 in 10.0 mi WSW 19.6 mph 28.8 mph N/A   Overcast
9:53 AM 33.1 °F 24.9 °F 21.9 °F 64% 29.69 in 10.0 mi WSW 10.4 mph - N/A   Overcast
10:53 AM 34.0 °F 25.0 °F 21.9 °F 61% 29.70 in 10.0 mi SW 12.7 mph - N/A   Overcast
11:53 AM 36.0 °F 29.0 °F 23.0 °F 59% 29.71 in 10.0 mi WSW 9.2 mph - N/A   Overcast
12:53 PM 37.9 °F 30.5 °F 23.0 °F 55% 29.70 in 10.0 mi WSW 11.5 mph - N/A   Mostly Cloudy
1:53 PM 39.0 °F 33.4 °F 23.0 °F 53% 29.69 in 10.0 mi WSW 8.1 mph - N/A   Clear
2:53 PM 41.0 °F 33.9 °F 21.9 °F 47% 29.68 in 10.0 mi West 12.7 mph - N/A   Partly Cloudy
3:53 PM 42.1 °F 35.7 °F 21.0 °F 43% 29.68 in 10.0 mi WSW 11.5 mph - N/A   Overcast
4:53 PM 39.9 °F 33.4 °F 21.9 °F 49% 29.69 in 10.0 mi SW 10.4 mph - N/A   Mostly Cloudy
5:53 PM 37.9 °F 30.0 °F 25.0 °F 60% 29.70 in 10.0 mi SW 12.7 mph - N/A   Overcast
6:53 PM 36.0 °F 33.3 °F 27.0 °F 70% 29.70 in 10.0 mi NNW 3.5 mph - N/A   Overcast
7:53 PM 34.0 °F 28.8 °F 28.9 °F 82% 29.68 in 10.0 mi NNE 5.8 mph - N/A   Overcast
8:53 PM 34.0 °F 28.8 °F 28.9 °F 82% 29.67 in 10.0 mi North 5.8 mph - N/A   Overcast
9:53 PM 33.1 °F 25.5 °F 30.0 °F 89% 29.68 in 4.0 mi North 9.2 mph - 0.00 in Snow Light Snow
10:53 PM 33.1 °F 30.0 °F 30.0 °F 89% 29.68 in 5.0 mi ENE 3.5 mph - 0.00 in Snow Light Snow
11:01 PM 33.1 °F 30.0 °F 30.0 °F 89% 29.67 in 2.0 mi ENE 3.5 mph - 0.00 in Snow Light Snow
11:10 PM 33.1 °F 30.0 °F 30.0 °F 89% 29.66 in 1.2 mi ENE 3.5 mph - 0.01 in Snow Light Snow
11:27 PM 33.1 °F 28.7 °F 30.9 °F 92% 29.66 in 1.0 mi East 4.6 mph - 0.02 in Snow Light Snow
11:41 PM 33.1 °F 30.0 °F 30.9 °F 92% 29.66 in 0.8 mi East 3.5 mph - 0.04 in Snow Light Snow
11:53 PM 32.0 °F 27.5 °F 30.9 °F 96% 29.66 in 0.5 mi East 4.6 mph - 0.05 in Fog , Snow Snow